Location: Bougoudala
(13.2282°N, 4.9477°W)
Time: 11:09:58
(UTC+00:00)

FengYun 1-2 T - Pass Details

Date: 29 January 2020
Orbit: 846 x 881 km, 98.7° (Epoch: 19 February)

Event Time Altitude Azimuth Distance (km) Brightness Sun altitude
Rises 18:44:33 0° 165° (SSE) 3,443 7.4 -6.8°
Reaches altitude 10° 18:46:55 10° 164° (SSE) 2,511 6.7 -7.3°
Maximum altitude 18:52:31 82° 77° (ENE) 886 4.3 -8.6°
Drops below altitude 10° 18:58:09 10° 350° (N) 2,529 6.6 -9.9°
Sets 19:00:33 0° 350° (N) 3,470 7.3 -10.5°
